TimeMST,TemperatureF,Dew PointF,Humidity,Sea Level PressureIn,VisibilityMPH,Wind Direction,Wind SpeedMPH,Gust SpeedMPH,PrecipitationIn,Events,Conditions,WindDirDegrees,DateUTC
12:57 AM,26.1,24.1,92,29.81,0.5,SW,19.6,-,0.04,Fog-Snow,Snow,230,2013-12-08 07:57:00
1:54 AM,26.6,24.8,93,29.81,1.0,WSW,19.6,38.0,0.04,Snow,Light Snow,240,2013-12-08 08:54:00
1:57 AM,27.0,24.1,89,29.83,1.5,WSW,23.0,38.0,0.04,Snow,Light Snow,240,2013-12-08 08:57:00
2:24 AM,26.1,24.1,92,29.81,1.2,SW,19.6,28.8,0.00,Snow,Light Snow,230,2013-12-08 09:24:00
2:34 AM,27.0,23.0,85,29.81,1.2,SW,25.3,35.7,0.01,Snow,Light Snow,230,2013-12-08 09:34:00
2:40 AM,27.0,23.0,85,29.81,2.0,WSW,23.0,36.8,0.01,Snow,Light Snow,240,2013-12-08 09:40:00
2:55 AM,26.6,23.0,86,29.82,1.8,SW,25.3,35.7,0.01,Snow,Light Snow,230,2013-12-08 09:55:00
2:57 AM,26.1,23.0,88,29.84,1.8,WSW,19.6,35.7,0.01,Snow,Light Snow,240,2013-12-08 09:57:00
3:15 AM,26.1,21.9,84,29.82,2.5,SW,24.2,39.1,0.00,Snow,Light Snow,230,2013-12-08 10:15:00
3:22 AM,26.1,21.9,84,29.83,4.0,WSW,21.9,32.2,0.00,Snow,Light Snow,250,2013-12-08 10:22:00
3:57 AM,25.0,21.0,85,29.87,5.0,SW,20.7,34.5,0.00,,Overcast,230,2013-12-08 10:57:00
4:12 AM,25.0,21.0,85,29.84,2.5,WSW,19.6,29.9,0.00,Snow,Light Snow,240,2013-12-08 11:12:00
4:14 AM,25.0,21.0,85,29.85,3.0,WSW,20.7,28.8,0.00,Snow,Light Snow,240,2013-12-08 11:14:00
4:38 AM,25.0,21.0,85,29.85,5.0,WSW,12.7,25.3,0.00,Snow,Light Snow,240,2013-12-08 11:38:00
4:49 AM,25.0,19.0,78,29.86,7.0,West,16.1,25.3,0.00,Snow,Light Snow,260,2013-12-08 11:49:00
4:57 AM,24.1,18.0,77,29.91,8.0,West,9.2,23.0,0.00,Snow,Light Snow,270,2013-12-08 11:57:00
5:04 AM,24.1,19.0,81,29.87,8.0,West,12.7,19.6,0.00,Snow,Light Snow,260,2013-12-08 12:04:00
5:19 AM,23.0,18.0,81,29.87,10.0,West,12.7,20.7,0.00,,Overcast,260,2013-12-08 12:19:00
5:32 AM,23.0,18.0,81,29.88,10.0,West,10.4,18.4,0.00,,Overcast,260,2013-12-08 12:32:00
5:57 AM,23.0,17.1,78,29.94,10.0,West,8.1,18.4,0.00,,Overcast,260,2013-12-08 12:57:00
6:21 AM,21.9,17.1,82,29.90,10.0,West,8.1,16.1,N/A,,Mostly Cloudy,270,2013-12-08 13:21:00
6:29 AM,21.9,17.1,82,29.91,10.0,West,6.9,-,N/A,,Mostly Cloudy,270,2013-12-08 13:29:00
6:37 AM,21.9,17.1,82,29.91,10.0,West,9.2,-,N/A,,Mostly Cloudy,260,2013-12-08 13:37:00
6:57 AM,21.9,17.1,82,29.96,10.0,West,10.4,-,N/A,,Overcast,260,2013-12-08 13:57:00
7:42 AM,19.9,15.1,81,29.92,10.0,West,9.2,-,0.00,,Mostly Cloudy,260,2013-12-08 14:42:00
7:57 AM,19.9,15.1,81,29.98,10.0,WSW,8.1,-,0.00,,Overcast,250,2013-12-08 14:57:00
8:34 AM,21.0,15.1,78,29.93,10.0,West,5.8,-,N/A,,Scattered Clouds,260,2013-12-08 15:34:00
8:57 AM,23.0,15.1,72,29.98,10.0,WSW,8.1,17.3,N/A,,Scattered Clouds,240,2013-12-08 15:57:00
9:31 AM,23.0,15.1,72,29.97,10.0,SW,12.7,-,N/A,,Mostly Cloudy,230,2013-12-08 16:31:00
9:57 AM,23.0,16.0,74,30.02,10.0,WSW,10.4,-,N/A,,Overcast,250,2013-12-08 16:57:00
10:57 AM,24.1,16.0,71,30.02,10.0,WSW,9.2,-,N/A,,Mostly Cloudy,250,2013-12-08 17:57:00
11:57 AM,26.1,16.0,66,29.99,10.0,SSW,12.7,-,N/A,,Mostly Cloudy,210,2013-12-08 18:57:00
12:31 PM,26.1,17.1,69,29.95,10.0,SSW,16.1,-,N/A,,Scattered Clouds,210,2013-12-08 19:31:00
12:57 PM,26.1,17.1,69,29.96,10.0,SSW,15.0,-,N/A,,Scattered Clouds,210,2013-12-08 19:57:00
1:57 PM,26.1,16.0,66,29.92,10.0,SSW,13.8,-,N/A,,Overcast,210,2013-12-08 20:57:00
2:05 PM,26.1,16.0,66,29.91,10.0,SW,13.8,-,N/A,,Overcast,220,2013-12-08 21:05:00
2:57 PM,26.1,16.0,66,29.93,10.0,SSW,16.1,-,N/A,,Overcast,210,2013-12-08 21:57:00
3:17 PM,25.0,16.0,69,29.91,10.0,SW,10.4,-,N/A,,Overcast,220,2013-12-08 22:17:00
3:57 PM,26.1,17.1,69,29.92,10.0,SW,11.5,-,N/A,,Overcast,230,2013-12-08 22:57:00
4:34 PM,26.1,19.0,75,29.89,10.0,SW,8.1,-,N/A,,Overcast,220,2013-12-08 23:34:00
4:57 PM,26.1,19.0,75,29.93,10.0,West,5.8,-,N/A,,Overcast,260,2013-12-08 23:57:00
5:57 PM,25.0,17.1,72,29.96,9.0,Variable,4.6,-,0.00,Snow,Light Snow,0,2013-12-09 00:57:00
6:57 PM,24.1,16.0,71,30.00,9.0,West,8.1,-,0.00,Snow,Light Snow,270,2013-12-09 01:57:00
7:57 PM,23.0,17.1,78,30.00,10.0,SSW,8.1,-,0.00,,Overcast,210,2013-12-09 02:57:00
8:57 PM,21.0,16.0,81,30.01,10.0,SW,6.9,-,N/A,,Overcast,230,2013-12-09 03:57:00
9:57 PM,21.0,17.1,85,30.01,10.0,WSW,6.9,-,N/A,,Overcast,240,2013-12-09 04:57:00
10:57 PM,21.0,17.1,85,30.02,10.0,WSW,5.8,-,N/A,,Overcast,250,2013-12-09 05:57:00
11:53 PM,17.6,14.0,86,29.97,10.0,West,3.5,-,N/A,,Scattered Clouds,270,2013-12-09 06:53:00
11:57 PM,18.0,14.0,84,30.04,10.0,West,4.6,-,N/A,,Partly Cloudy,260,2013-12-09 06:57:00